Roros Lufthavn, Norway

2:21 PM CET on December 09, 2019 (GMT +0100)
Roros

Weather History for ENRO - October, 2019

Change the Weather History Date:

Friday, October 11, 2019

  Actual Average Record
Temperature  
Mean Temperature 32 °F -  
Max Temperature 42 °F 41 °F 59 °F (2018)
Min Temperature 23 °F 32 °F 19 °F (2004)
Degree Days  
Heating Degree Days 32    
Moisture  
Dew Point 30 °F    
Average Humidity 96    
Maximum Humidity 100    
Minimum Humidity 76    
Precipitation  
Precipitation 0.00 in - - ()
Sea Level Pressure  
Sea Level Pressure 29.28 in    
Wind  
Wind Speed 2 mph ()    
Max Wind Speed 8 mph    
Max Gust Speed -    
Visibility 6.2 miles    
Events Snow    
Averages and records for this station are not official NWS values.
T = Trace of Precipitation, MM = Missing Value Source: Averaged Metar Reports

Daily Weather History Graph

Daily Weather History Graph

Search for Another Location

Airport or City:

Astronomy

Oct. 11, 2019 Rise Set
Actual Time 7:48 AM CEST 6:13 PM CEST
Civil Twilight 7:02 AM CEST 6:58 PM CEST
Nautical Twilight 6:10 AM CEST 7:50 PM CEST
Astronomical Twilight 5:16 AM CEST 8:44 PM CEST
Moon 6:34 PM CEST (10/11) 4:00 AM CEST (10/11)
Length of Visible Light 11h 56m
Length of Day
10h 25m
Waxing Gibbous, 94% of the Moon is Illuminated
Oct 11
Waxing Gibbous
Oct 13
Full
Oct 21
Last Quarter
Oct 28
New
Nov 4
First Quarter

Hourly Weather History & Observations

Time (CEST) Temp. Windchill Dew Point Humidity Pressure Visibility Wind Dir Wind Speed Gust Speed Precip Events Conditions
12:20 AM 24.8 °F - 24.8 °F 100% 29.33 in 6.2 mi Variable 2.3 mph - N/A   Scattered Clouds
12:50 AM 24.8 °F - 24.8 °F 100% 29.33 in 6.2 mi Variable 1.2 mph - N/A   Mostly Cloudy
1:20 AM 23.0 °F - 23.0 °F 100% 29.33 in 6.2 mi Variable 2.3 mph - N/A   Mostly Cloudy
1:50 AM 24.8 °F - 24.8 °F 100% 29.33 in 6.2 mi Variable 1.2 mph - N/A   Partly Cloudy
2:20 AM 24.8 °F - 24.8 °F 100% 29.33 in 6.2 mi Variable 1.2 mph - N/A   Mostly Cloudy
2:50 AM 24.8 °F - 24.8 °F 100% 29.33 in 6.2 mi Variable 1.2 mph - N/A   Partly Cloudy
3:20 AM 23.0 °F - 23.0 °F 100% 29.33 in 6.2 mi Variable 1.2 mph - N/A   Scattered Clouds
3:50 AM 23.0 °F - 23.0 °F 100% 29.33 in 6.2 mi Variable 2.3 mph - N/A   Mostly Cloudy
4:20 AM 24.8 °F 20.5 °F 24.8 °F 100% 29.33 in 6.2 mi ESE 3.5 mph - N/A   Overcast
4:50 AM 24.8 °F - 24.8 °F 100% 29.33 in 6.2 mi Variable 1.2 mph - N/A   Overcast
5:20 AM 26.6 °F - 26.6 °F 100% 29.33 in 6.2 mi Variable 1.2 mph - N/A   Overcast
5:50 AM 26.6 °F - 26.6 °F 100% 29.33 in 6.2 mi Variable 1.2 mph - N/A   Overcast
6:20 AM 26.6 °F - 26.6 °F 100% 29.33 in 6.2 mi East 2.3 mph - N/A   Mostly Cloudy
6:50 AM 26.6 °F 22.6 °F 26.6 °F 100% 29.33 in 6.2 mi ESE 3.5 mph - N/A Snow Light Snow
7:20 AM 28.4 °F - 28.4 °F 100% 29.33 in 6.2 mi Variable 2.3 mph - N/A Snow Light Snow
7:50 AM 28.4 °F - 28.4 °F 100% 29.33 in 6.2 mi Variable 2.3 mph - N/A   Mostly Cloudy
8:20 AM 28.4 °F - 28.4 °F 100% 29.33 in 6.2 mi Variable 2.3 mph - N/A   Mostly Cloudy
8:50 AM 30.2 °F 26.7 °F 30.2 °F 100% 29.33 in 6.2 mi West 3.5 mph - N/A   Mostly Cloudy
9:20 AM 30.2 °F - 30.2 °F 100% 29.33 in 6.2 mi Variable 2.3 mph - N/A   Mostly Cloudy
9:50 AM 32.0 °F 26.4 °F 32.0 °F 100% 29.33 in 6.2 mi SW 5.8 mph - N/A   Mostly Cloudy
10:20 AM 33.8 °F - 33.8 °F 100% 29.33 in 6.2 mi Variable 2.3 mph - N/A   Mostly Cloudy
10:50 AM 33.8 °F 30.8 °F 33.8 °F 100% 29.33 in 6.2 mi ESE 3.5 mph - N/A   Mostly Cloudy
11:20 AM 35.6 °F - 35.6 °F 100% 29.33 in 6.2 mi Variable 2.3 mph - N/A   Mostly Cloudy
11:50 AM 37.4 °F - 37.4 °F 100% 29.30 in 6.2 mi Variable 2.3 mph - N/A   Mostly Cloudy
12:20 PM 39.2 °F - 35.6 °F 87% 29.30 in 6.2 mi Variable 2.3 mph - N/A   Mostly Cloudy
12:50 PM 39.2 °F - 35.6 °F 87% 29.30 in 6.2 mi Variable 2.3 mph - N/A   Mostly Cloudy
1:20 PM 41.0 °F - 37.4 °F 87% 29.30 in 6.2 mi Variable 2.3 mph - N/A   Mostly Cloudy
1:50 PM 41.0 °F - 37.4 °F 87% 29.30 in 6.2 mi Variable 2.3 mph - N/A   Mostly Cloudy
2:20 PM 41.0 °F 37.1 °F 35.6 °F 81% 29.30 in 6.2 mi East 5.8 mph - N/A   Mostly Cloudy
2:50 PM 42.8 °F 38.6 °F 35.6 °F 76% 29.27 in 6.2 mi ESE 6.9 mph - N/A   Scattered Clouds
3:20 PM 42.8 °F 39.3 °F 35.6 °F 76% 29.27 in 6.2 mi ESE 5.8 mph - N/A   Scattered Clouds
3:50 PM 41.0 °F 35.8 °F 35.6 °F 81% 29.24 in 6.2 mi ESE 8.1 mph - N/A   Scattered Clouds
4:20 PM 41.0 °F 35.8 °F 35.6 °F 81% 29.24 in 6.2 mi ESE 8.1 mph - N/A   Scattered Clouds
4:50 PM 39.2 °F 34.2 °F 35.6 °F 87% 29.24 in 6.2 mi ESE 6.9 mph - N/A   Scattered Clouds
5:20 PM 37.4 °F 34.9 °F 35.6 °F 93% 29.21 in 6.2 mi SSE 3.5 mph - N/A   Partly Cloudy
5:50 PM 35.6 °F - 35.6 °F 100% 29.21 in 6.2 mi Variable 2.3 mph - N/A   Partly Cloudy
7:20 PM 30.2 °F 26.7 °F 30.2 °F 100% 29.18 in - NW 3.5 mph - N/A   Clear
7:50 PM 30.2 °F 26.7 °F 30.2 °F 100% 29.18 in - Variable 3.5 mph - N/A   Clear
8:20 PM 28.4 °F - 28.4 °F 100% 29.18 in - Variable 1.2 mph - N/A   Clear
8:50 PM 30.2 °F 26.7 °F 30.2 °F 100% 29.18 in 6.2 mi WSW 3.5 mph - N/A   Partly Cloudy
9:20 PM 30.2 °F 26.7 °F 30.2 °F 100% 29.18 in - WSW 3.5 mph - N/A   Clear
9:50 PM 30.2 °F - 30.2 °F 100% 29.18 in 6.2 mi Variable 2.3 mph - N/A   Partly Cloudy
10:20 PM 30.2 °F - 30.2 °F 100% 29.15 in 6.2 mi Variable 1.2 mph - N/A   Mostly Cloudy
10:50 PM 30.2 °F 25.4 °F 30.2 °F 100% 29.15 in 6.2 mi NW 4.6 mph - N/A   Overcast
11:20 PM 30.2 °F - 30.2 °F 100% 29.15 in 6.2 mi Variable 2.3 mph - N/A   Mostly Cloudy
11:50 PM 32.0 °F 28.7 °F 32.0 °F 100% 29.15 in 6.2 mi NE 3.5 mph - N/A   Overcast